STARLINK-32477, 62038

Orbit data source: Space-Track

STARLINK-32477, 62038 is a payload satellite owned by SpaceX/Seattle (US) in LEO that was launched on Thu, 21 Nov 2024 UTC via an FALCON 9 launch vehicle from the Air Force Eastern Test Range (AFETR). Payload-class satellites include a variety of spacecraft equipped with specific instruments for various scientific and technological missions. These include communications satellites like Starlink; space stations such as the ISS; scientific satellites like the Hubble; Earth observation satellites from companies like Planet Labs, Umbra, and HawkEye 360; GPS; miniature CubeSats for education and research; and military/defense satellites.

Loading next visibility...
Identifier
62038, 2024-216G
Orbit
LEO
Country
Flag of USUS
Related business
Manufacturer
SpaceX/Seattle
Mission
Operational Commercial Communications
Bus & Motor
STARLINK V2M, Unknown motor
Mass
730 kg wet, ~700 kg dry
Launch date (UTC)
2024-11-21 (10 months ago)
Launch vehicle
FALCON 9
Launch site
Air Force Eastern Test Range (AFETR)
Object type
Payload
Rocket body
Debris
Shape & HBR
Box + 2 Pan, 14.5 m
Radar Cross Section
36.964 m², Large (>1 m²)

Expand to show TLE details & history
Last TLE update: 11 hours ago

TLE from 11 hours ago
0 STARLINK-32477
1 62038U 24216G   25262.02720395  .00030276  00000-0  11040-2 0  9995
2 62038  42.9989 142.1868 0001917 260.2750  99.7886 15.27617259 46509
Epoch: 2025-09-19T00:39Z
TLE epoch observation values (Epoch: 2025-09-19T00:39:10.421Z)
Latitude
0.00005°
Longitude
134.21309°
Altitude
482.937 km
Speed
7.626 km/s
True Right ascension
09h 28m 44s
True Declination
0° 00' 00"
Sunlit
Object was in daylight at epoch
Visualization orbit readout
Latitude
Unknown
Longitude
Unknown
Altitude
Unknown
Speed
Unknown
Apparent Right ascension
Unknown
Apparent Declination
Unknown
Sunlit
N/A
Visualization observer readout
Local Sidereal Time
04:50:08
Azimuth
Unknown
Elevation
Unknown
Doppler factor
Unknown
Orbital elements
Apogee altitude
486.199 km
Perigee altitude
483.567 km
Semi-major axis
6,863.02 km
Eccentricity
0.00019
Inclination
42.9989°
RAAN
142.1868°
Arg. of periapsis
260.275°
True anomaly
99.81025°
Mean anomaly
99.7886°
Eccentric anomaly
99.79942°
Mean motion
3.81742 °/min
Orbital period
94.3 mins
BSTAR
0.001104
Loading maneuver chart data...
Computing Atmospheric mass density...
Loading historical data...
Loading historical data...
Loading historical data...
Loading historical data...
Loading historical data...
Loading historical data...
Loading historical data...

Documentation

Showing up to 5 results
|